When you browse on this site, cookies collect data to enhance your experience and personalize the content and advertising you see.
Visit our Privacy Policy to learn more. By continuing to use the site, you agree to this use of cookies and data.
  • In Österreich
  • Länderverzeichnis
  • Für 7 Tage
  • Wassertemperatur
  • Wetterkarte
  • News
  • Widgets
  • user-avatar
    Anmelden

    Stündliche Wetter Kumak

    Heute, 21 November, Donnerstag

    Zeit Temperatur Niederschläge Wind Luftdruck Luftfeuchtigkeit
    00:00 -23°C° 0 mm 3 m/S 764 mmHg 91%
    01:00 -23°C° 0 mm 3 m/S 764 mmHg 92%
    02:00 -23°C° 0 mm 3 m/S 764 mmHg 92%
    03:00 -23°C° 0 mm 3 m/S 764 mmHg 92%
    04:00 -24°C° 0 mm 3 m/S 765 mmHg 90%
    05:00 -24°C° 0 mm 3 m/S 765 mmHg 90%
    06:00 -23°C° 0 mm 3 m/S 764 mmHg 91%
    07:00 -21°C° 0 mm 2 m/S 764 mmHg 91%
    08:00 -21°C° 0 mm 2 m/S 764 mmHg 88%
    09:00 -20°C° 0 mm 2 m/S 765 mmHg 85%
    10:00 -19°C° 0 mm 2 m/S 765 mmHg 83%
    11:00 -16°C° 0 mm 1 m/S 764 mmHg 80%
    12:00 -15°C° 0 mm 1 m/S 764 mmHg 78%
    13:00 -14°C° 0 mm 1 m/S 764 mmHg 75%
    14:00 -15°C° 0 mm 1 m/S 763 mmHg 78%
    15:00 -15°C° 0 mm 1 m/S 763 mmHg 80%
    16:00 -15°C° 0 mm 1 m/S 763 mmHg 82%
    17:00 -15°C° 0 mm 1 m/S 763 mmHg 83%
    18:00 -15°C° 0 mm 1 m/S 762 mmHg 83%
    19:00 -15°C° 0 mm 1 m/S 762 mmHg 83%
    20:00 -15°C° 0 mm 1 m/S 762 mmHg 84%
    21:00 -14°C° 0 mm 1 m/S 762 mmHg 84%
    22:00 -14°C° 0 mm 1 m/S 762 mmHg 85%
    23:00 -14°C° 0 mm 1 m/S 762 mmHg 84%

    Morgen, 22 November, Freitag

    Zeit Temperatur Niederschläge Wind Luftdruck Luftfeuchtigkeit
    00:00 -14°C° 0 mm 1 m/S 761 mmHg 84%
    01:00 -16°C° 0 mm 2 m/S 761 mmHg 84%
    02:00 -15°C° 0 mm 2 m/S 761 mmHg 83%
    03:00 -15°C° 0 mm 2 m/S 760 mmHg 82%
    04:00 -15°C° 0 mm 2 m/S 760 mmHg 82%
    05:00 -15°C° 0 mm 2 m/S 760 mmHg 81%
    06:00 -15°C° 0 mm 2 m/S 759 mmHg 81%
    07:00 -15°C° 0 mm 2 m/S 759 mmHg 80%
    08:00 -14°C° 0 mm 2 m/S 759 mmHg 79%
    09:00 -13°C° 0 mm 2 m/S 759 mmHg 77%
    10:00 -10°C° 0 mm 1 m/S 760 mmHg 75%
    11:00 -10°C° 0 mm 1 m/S 759 mmHg 73%
    12:00 -9°C° 0 mm 1 m/S 759 mmHg 70%
    13:00 -8°C° 0 mm 1 m/S 759 mmHg 68%
    14:00 -9°C° 0 mm 1 m/S 758 mmHg 71%
    15:00 -10°C° 0 mm 1 m/S 758 mmHg 75%
    16:00 -10°C° 0 mm 1 m/S 758 mmHg 78%
    17:00 -11°C° 0 mm 1 m/S 758 mmHg 78%
    18:00 -11°C° 0 mm 1 m/S 758 mmHg 78%
    19:00 -12°C° 0 mm 1 m/S 758 mmHg 79%
    20:00 -12°C° 0 mm 0 m/S 758 mmHg 78%
    21:00 -12°C° 0 mm 0 m/S 758 mmHg 77%
    22:00 -12°C° 0 mm 0 m/S 758 mmHg 76%
    23:00 -12°C° 0 mm 0 m/S 758 mmHg 76%

    übermorgen, 23 November, Samstag

    Zeit Temperatur Niederschläge Wind Luftdruck Luftfeuchtigkeit
    00:00 -12°C° 0 mm 0 m/S 758 mmHg 75%
    01:00 -12°C° 0 mm 0 m/S 758 mmHg 75%
    02:00 -12°C° 0 mm 0 m/S 758 mmHg 75%
    03:00 -12°C° 0 mm 0 m/S 758 mmHg 74%
    04:00 -12°C° 0 mm 1 m/S 757 mmHg 74%
    05:00 -12°C° 0 mm 0 m/S 757 mmHg 75%
    06:00 -12°C° 0 mm 0 m/S 757 mmHg 76%
    07:00 -12°C° 0 mm 0 m/S 757 mmHg 77%
    08:00 -11°C° 0 mm 0 m/S 757 mmHg 75%
    09:00 -10°C° 0 mm 0 m/S 757 mmHg 74%
    10:00 -9°C° 0 mm 0 m/S 757 mmHg 73%
    11:00 -8°C° 0 mm 0 m/S 757 mmHg 74%
    12:00 -8°C° 0 mm 1 m/S 756 mmHg 74%
    13:00 -7°C° 0 mm 1 m/S 756 mmHg 74%
    14:00 -8°C° 0 mm 1 m/S 756 mmHg 77%
    15:00 -9°C° 0 mm 2 m/S 755 mmHg 79%
    16:00 -10°C° 0 mm 2 m/S 755 mmHg 82%
    17:00 -10°C° 0 mm 2 m/S 755 mmHg 83%
    18:00 -12°C° 0 mm 3 m/S 755 mmHg 83%
    19:00 -12°C° 0 mm 3 m/S 754 mmHg 84%
    20:00 -12°C° 0 mm 3 m/S 754 mmHg 86%
    21:00 -12°C° 0 mm 3 m/S 754 mmHg 88%
    22:00 -12°C° 0 mm 3 m/S 754 mmHg 90%
    23:00 -12°C° 0 mm 3 m/S 753 mmHg 90%

    24 November, Sonntag

    Zeit Temperatur Niederschläge Wind Luftdruck Luftfeuchtigkeit
    00:00 -12°C° 0 mm 3 m/S 753 mmHg 91%
    01:00 -12°C° 0 mm 3 m/S 753 mmHg 91%
    02:00 -12°C° 0 mm 3 m/S 753 mmHg 91%
    03:00 -12°C° 0 mm 3 m/S 753 mmHg 90%
    04:00 -12°C° 0 mm 3 m/S 753 mmHg 90%
    05:00 -12°C° 0 mm 2 m/S 753 mmHg 89%
    06:00 -12°C° 0 mm 2 m/S 753 mmHg 89%
    07:00 -12°C° 0 mm 2 m/S 753 mmHg 89%
    08:00 -10°C° 0 mm 2 m/S 753 mmHg 88%
    09:00 -9°C° 0 mm 1 m/S 753 mmHg 86%
    10:00 -8°C° 0 mm 1 m/S 753 mmHg 85%
    11:00 -7°C° 0 mm 1 m/S 753 mmHg 83%
    12:00 -7°C° 0 mm 1 m/S 753 mmHg 81%
    13:00 -6°C° 0 mm 1 m/S 753 mmHg 80%
    14:00 -6°C° 0 mm 1 m/S 753 mmHg 81%
    15:00 -6°C° 0 mm 1 m/S 753 mmHg 83%
    16:00 -7°C° 0 mm 1 m/S 753 mmHg 84%
    17:00 -7°C° 0 mm 1 m/S 753 mmHg 85%
    18:00 -8°C° 0 mm 1 m/S 753 mmHg 85%
    19:00 -8°C° 0 mm 1 m/S 753 mmHg 86%
    20:00 -9°C° 0 mm 1 m/S 753 mmHg 86%
    21:00 -9°C° 0 mm 1 m/S 753 mmHg 86%
    22:00 -9°C° 0 mm 1 m/S 753 mmHg 86%
    23:00 -9°C° 0 mm 1 m/S 753 mmHg 86%

    25 November, Montag

    Zeit Temperatur Niederschläge Wind Luftdruck Luftfeuchtigkeit
    00:00 -9°C° 0 mm 1 m/S 753 mmHg 86%
    01:00 -10°C° 0 mm 1 m/S 753 mmHg 86%
    02:00 -10°C° 0 mm 1 m/S 754 mmHg 86%
    03:00 -12°C° 0 mm 2 m/S 754 mmHg 86%
    04:00 -12°C° 0 mm 2 m/S 754 mmHg 87%
    05:00 -12°C° 0 mm 2 m/S 754 mmHg 87%
    06:00 -12°C° 0 mm 2 m/S 754 mmHg 88%
    07:00 -12°C° 0 mm 2 m/S 754 mmHg 88%
    08:00 -12°C° 0 mm 2 m/S 754 mmHg 88%
    09:00 -10°C° 0 mm 2 m/S 754 mmHg 87%
    10:00 -9°C° 0 mm 2 m/S 755 mmHg 87%
    11:00 -8°C° 0 mm 1 m/S 755 mmHg 86%
    12:00 -7°C° 0 mm 1 m/S 755 mmHg 85%
    13:00 -6°C° 0 mm 1 m/S 755 mmHg 84%
    14:00 -7°C° 0 mm 1 m/S 755 mmHg 85%
    15:00 -8°C° 0 mm 1 m/S 755 mmHg 87%
    16:00 -9°C° 0 mm 1 m/S 755 mmHg 89%
    17:00 -9°C° 0 mm 1 m/S 755 mmHg 89%
    18:00 -9°C° 0 mm 1 m/S 755 mmHg 89%
    19:00 -10°C° 0 mm 1 m/S 755 mmHg 89%
    20:00 -10°C° 0 mm 1 m/S 755 mmHg 89%
    21:00 -10°C° 0 mm 1 m/S 755 mmHg 89%
    22:00 -10°C° 0 mm 1 m/S 755 mmHg 90%
    23:00 -11°C° 0 mm 0 m/S 755 mmHg 90%

    26 November, Dienstag

    Zeit Temperatur Niederschläge Wind Luftdruck Luftfeuchtigkeit
    00:00 -11°C° 0 mm 0 m/S 755 mmHg 90%
    01:00 -11°C° 0 mm 0 m/S 755 mmHg 90%
    02:00 -11°C° 0 mm 0 m/S 755 mmHg 90%
    03:00 -11°C° 0 mm 1 m/S 755 mmHg 90%
    04:00 -11°C° 0 mm 1 m/S 755 mmHg 90%
    05:00 -11°C° 0 mm 1 m/S 755 mmHg 90%
    06:00 -11°C° 0 mm 1 m/S 755 mmHg 90%
    07:00 -11°C° 0 mm 1 m/S 755 mmHg 91%
    08:00 -12°C° 0 mm 2 m/S 755 mmHg 90%
    09:00 -10°C° 0 mm 2 m/S 755 mmHg 90%
    10:00 -9°C° 0 mm 2 m/S 755 mmHg 89%
    11:00 -10°C° 0 mm 3 m/S 754 mmHg 88%
    12:00 -9°C° 0 mm 3 m/S 754 mmHg 87%
    13:00 -8°C° 0 mm 3 m/S 754 mmHg 86%
    14:00 -9°C° 0 mm 3 m/S 754 mmHg 87%
    15:00 -9°C° 0 mm 3 m/S 754 mmHg 89%
    16:00 -11°C° 0 mm 4 m/S 754 mmHg 90%
    17:00 -10°C° 0 mm 3 m/S 754 mmHg 91%
    18:00 -12°C° 0 mm 3 m/S 754 mmHg 91%
    19:00 -13°C° 0 mm 3 m/S 754 mmHg 91%
    20:00 -13°C° 0 mm 3 m/S 754 mmHg 91%
    21:00 -13°C° 0 mm 3 m/S 754 mmHg 91%
    22:00 -14°C° 0 mm 4 m/S 754 mmHg 91%
    23:00 -14°C° 0 mm 4 m/S 754 mmHg 90%
    Mehr zeigen